Date String (YYYY-MM-DD hh:mm:ss) UTC,Instrument flags,Ambient pressure (hPa),Sample flow (lpm),Bypass flow (lpm),Sample temperature (°C),Ambient temperature (°C),ASC tube jacket temperature (°C),LED temperature (°C),Box temperature (°C),Sample RH (%),Span deviation,Mass concentration (μg/m³),Mass concentration (μg/m³),Mass concentration (μg/m³)
DateTimeUTC,F1_M11,P_M11,Q1_M11,Q2_M11,T1_M11,T2_M11,T3_M11,T4_M11,T5_M11,U1_M11,ZSPAN_M11,X0_M11,X2_M11,X1_M11
2022-02-04 00:00:00,,0828.3,5.00,0.00,22.3,21.3,00.0,31.4,24.0,05.3,0001.9,0018.57,0012.38,0011.86
2022-02-04 00:01:00,,0828.3,4.99,0.00,22.3,21.4,00.0,31.4,24.0,05.3,0001.8,0018.94,0012.42,0011.84
2022-02-04 00:02:00,,0828.3,5.00,0.00,22.3,21.4,00.0,31.4,24.0,05.3,0001.3,0018.54,0012.43,0011.85
2022-02-04 00:03:00,,0828.3,5.00,0.00,22.3,21.5,00.0,31.4,24.0,05.3,0001.0,0018.64,0012.44,0011.85
2022-02-04 00:04:00,,0828.3,5.00,0.00,22.3,21.5,00.0,31.4,24.0,05.3,0001.4,0018.69,0012.45,0011.87
2022-02-04 00:05:00,,0828.2,5.00,0.00,22.3,21.5,00.0,31.4,24.0,05.3,0001.6,0018.39,0012.42,0011.85
2022-02-04 00:06:00,,0828.2,5.00,0.00,22.3,21.6,00.0,31.4,24.1,05.3,0001.7,0017.70,0012.40,0011.80
2022-02-04 00:07:00,,0828.2,4.99,0.00,22.3,21.6,00.0,31.3,24.1,05.2,0002.1,0017.41,0012.39,0011.80
2022-02-04 00:08:00,,0828.3,5.00,0.00,22.3,21.6,00.0,31.3,24.1,05.2,0002.5,0017.27,0012.40,0011.81
2022-02-04 00:09:00,,0828.3,5.02,0.00,22.4,21.9,00.0,31.4,24.2,05.2,0002.2,0017.23,0012.40,0011.81
2022-02-04 00:10:00,,0828.3,4.98,0.00,22.5,22.6,00.0,31.4,24.4,05.2,0002.8,0017.31,0012.42,0011.81
2022-02-04 00:11:00,,0828.4,5.01,0.00,22.6,23.0,00.0,31.4,24.6,05.2,0002.9,0017.16,0012.36,0011.80
2022-02-04 00:12:00,,0828.4,5.01,0.00,22.7,22.8,00.0,31.5,24.6,05.2,0003.1,0016.75,0012.31,0011.78
2022-02-04 00:13:00,,0828.4,5.00,0.00,22.7,22.7,00.0,31.5,24.6,05.2,0003.1,0016.55,0012.31,0011.76
2022-02-04 00:14:00,,0828.4,5.00,0.00,22.7,22.6,00.0,31.5,24.6,05.2,0002.7,0016.81,0012.31,0011.75
2022-02-04 00:15:00,,0828.5,4.99,0.00,22.7,22.5,00.0,31.5,24.6,05.1,0002.3,0016.93,0012.31,0011.73
2022-02-04 00:16:00,,0828.6,5.01,0.00,22.7,22.4,00.0,31.5,24.5,05.1,0001.7,0016.86,0012.27,0011.69
2022-02-04 00:17:00,,0829.1,5.01,0.00,22.7,22.2,00.0,31.5,24.4,05.1,0001.6,0016.49,0012.20,0011.64
2022-02-04 00:18:00,,0829.0,4.99,0.00,22.6,22.1,00.0,31.6,24.3,05.1,0001.7,0016.51,0012.19,0011.62
2022-02-04 00:19:00,,0828.7,5.00,0.00,22.6,21.9,00.0,31.6,24.2,05.2,0000.8,0016.86,0012.22,0011.63
2022-02-04 00:20:00,,0828.6,4.99,0.00,22.5,21.8,00.0,31.5,24.1,05.2,0000.5,0017.40,0012.23,0011.63
2022-02-04 00:21:00,,0828.6,5.00,0.00,22.4,21.6,00.0,31.5,24.0,05.3,0000.4,0017.31,0012.20,0011.61
2022-02-04 00:22:00,,0828.7,5.01,0.00,22.3,21.5,00.0,31.5,23.9,05.3,0001.0,0017.97,0012.20,0011.59
2022-02-04 00:23:00,,0828.7,5.00,0.00,22.3,21.4,00.0,31.5,23.8,05.4,0001.5,0018.36,0012.19,0011.56
2022-02-04 00:24:00,,0828.7,5.01,0.00,22.2,21.3,00.0,31.4,23.7,05.4,0001.1,0018.37,0012.16,0011.52
2022-02-04 00:25:00,,0828.9,4.99,0.00,22.2,21.2,00.0,31.4,23.7,05.4,0001.8,0018.04,0012.16,0011.48
2022-02-04 00:26:00,,0828.7,4.99,0.00,22.2,21.7,00.0,31.4,23.8,05.4,0002.3,0017.94,0012.13,0011.45
2022-02-04 00:27:00,,0828.7,5.01,0.00,22.3,22.3,00.0,31.4,24.1,05.4,0003.0,0017.93,0012.13,0011.44
2022-02-04 00:28:00,,0829.0,4.99,0.00,22.4,23.0,00.0,31.5,24.4,05.3,0003.2,0018.34,0012.19,0011.50
2022-02-04 00:29:00,,0829.2,5.01,0.00,22.6,23.1,00.0,31.5,24.5,05.3,0002.9,0018.39,0012.23,0011.54
2022-02-04 00:30:00,,0828.8,5.00,0.00,22.6,22.9,00.0,31.5,24.5,05.3,0003.1,0018.10,0012.21,0011.52
2022-02-04 00:31:00,,0828.9,4.99,0.00,22.6,22.6,00.0,31.5,24.4,05.3,0003.5,0018.55,0012.21,0011.54
2022-02-04 00:32:00,,0828.9,4.99,0.00,22.6,22.5,00.0,31.5,24.3,05.3,0003.6,0018.76,0012.23,0011.55
2022-02-04 00:33:00,,0829.0,5.00,0.00,22.6,22.3,00.0,31.5,24.4,05.3,0003.0,0018.25,0012.25,0011.58
2022-02-04 00:34:00,,0829.0,5.01,0.00,22.6,22.2,00.0,31.5,24.3,05.3,0002.4,0017.95,0012.25,0011.62
2022-02-04 00:35:00,,0829.0,4.98,0.00,22.6,22.1,00.0,31.5,24.3,05.3,0002.4,0018.26,0012.24,0011.65
2022-02-04 00:36:00,,0829.0,5.01,0.00,22.6,22.0,00.0,31.5,24.3,05.3,0002.2,0018.21,0012.23,0011.68
2022-02-04 00:37:00,,0829.0,5.00,0.00,22.6,21.9,00.0,31.5,24.3,05.3,0001.5,0018.15,0012.24,0011.72
2022-02-04 00:38:00,,0829.0,4.98,0.00,22.5,21.9,00.0,31.5,24.3,05.3,0000.7,0018.16,0012.26,0011.75
2022-02-04 00:39:00,,0829.0,5.01,0.00,22.5,21.8,00.0,31.5,24.3,05.3,0000.3,0017.77,0012.23,0011.74
2022-02-04 00:40:00,,0829.0,4.99,0.00,22.5,21.8,00.0,31.5,24.3,05.3,0000.4,0017.71,0012.20,0011.73
2022-02-04 00:41:00,,0829.0,4.99,0.00,22.5,21.8,00.0,31.5,24.2,05.3,0000.6,0017.85,0012.25,0011.76
2022-02-04 00:42:00,,0829.0,5.02,0.00,22.5,21.7,00.0,31.5,24.2,05.3,0000.7,0017.46,0012.28,0011.76
2022-02-04 00:43:00,,0829.0,4.98,0.00,22.5,21.7,00.0,31.5,24.2,05.3,0000.3,0017.55,0012.29,0011.79
2022-02-04 00:44:00,,0829.0,5.01,0.00,22.5,21.7,00.0,31.5,24.2,05.3,0000.5,0017.92,0012.31,0011.83
2022-02-04 00:45:00,,0829.0,4.99,0.00,22.5,21.6,00.0,31.4,24.2,05.3,0000.4,0017.98,0012.34,0011.85
2022-02-04 00:46:00,,0829.0,5.01,0.00,22.5,21.6,00.0,31.4,24.1,05.3,0000.3,0017.67,0012.39,0011.89
2022-02-04 00:47:00,,0829.0,4.99,0.00,22.4,21.6,00.0,31.4,24.1,05.3,0000.3,0018.06,0012.43,0011.92
2022-02-04 00:48:00,,0829.0,5.00,0.00,22.4,21.7,00.0,31.4,24.1,05.3,0000.7,0018.39,0012.46,0011.94
2022-02-04 00:49:00,,0829.1,5.01,0.00,22.5,22.3,00.0,31.5,24.3,05.3,0001.1,0018.31,0012.47,0011.96
2022-02-04 00:50:00,,0829.2,4.98,0.00,22.6,22.9,00.0,31.5,24.5,05.3,0001.6,0018.49,0012.49,0011.97
2022-02-04 00:51:00,,0829.2,5.00,0.00,22.7,22.9,00.0,31.5,24.6,05.3,0001.8,0019.66,0012.50,0011.98
2022-02-04 00:52:00,,0829.2,5.00,0.00,22.7,22.8,00.0,31.6,24.6,05.2,0001.9,0019.60,0012.47,0011.98
2022-02-04 00:53:00,,0829.3,5.00,0.00,22.7,22.6,00.0,31.6,24.5,05.2,0002.1,0019.18,0012.46,0011.98
2022-02-04 00:54:00,,0829.3,5.00,0.00,22.7,22.4,00.0,31.6,24.5,05.2,0002.2,0018.76,0012.43,0011.95
2022-02-04 00:55:00,,0829.2,5.00,0.00,22.6,22.2,00.0,31.6,24.3,05.3,0002.0,0018.36,0012.40,0011.92
2022-02-04 00:56:00,,0829.2,5.00,0.00,22.6,22.0,00.0,31.6,24.2,05.3,0002.2,0018.15,0012.37,0011.89
2022-02-04 00:57:00,,0829.2,4.98,0.00,22.5,21.9,00.0,31.6,24.2,05.3,0002.2,0018.14,0012.34,0011.88
2022-02-04 00:58:00,,0829.6,5.02,0.00,22.5,21.8,00.0,31.5,24.1,05.3,0002.3,0017.76,0012.28,0011.82
2022-02-04 00:59:00,,0829.3,4.99,0.00,22.4,21.7,00.0,31.5,24.0,05.3,0002.3,0018.30,0012.19,0011.74
